STARLINK-11288, 61002

Orbit data source: Space-Track

STARLINK-11288, 61002 is a payload satellite owned by SpaceX/Seattle (US) in LEO that was launched on Thu, 05 Sep 2024 UTC via an FALCON 9 launch vehicle from the Air Force Eastern Test Range (AFETR). Payload-class satellites include a variety of spacecraft equipped with specific instruments for various scientific and technological missions. These include communications satellites like Starlink; space stations such as the ISS; scientific satellites like the Hubble; Earth observation satellites from companies like Planet Labs, Umbra, and HawkEye 360; GPS; miniature CubeSats for education and research; and military/defense satellites.

Loading next visibility...
Identifier
61002, 2024-158N
Orbit
LEO
Last TLE update
7 hours ago
Origin
Manufacturer
SpaceX/Seattle
Mission
Operational Commercial Communications
Bus & Motor
STARLINK V2M, Unknown motor
Mass
730 kg wet, ~700 kg dry
Launch date (UTC)
2024-09-05 (10 months ago)
Launch vehicle
FALCON 9
Launch site
Air Force Eastern Test Range (AFETR)
Object type
Payload
Rocket body
Debris
Shape & HBR
Box + 2 Pan, 29 m
Radar Cross Section
36.964 m², Large (>1 m²)

Expand to show TLE details & history

TLE from 7 hours ago
0 STARLINK-11288
1 61002U 24158N   25191.79022447  .00000444  00000-0  85288-5 0  9990
2 61002  53.1610  33.5948 0001213 151.8367 208.2717 15.69706061 49615
Epoch: 2025-07-10T18:57Z
TLE epoch observation values (Epoch: 2025-07-10T18:57:55.394Z)
Latitude
0.00001°
Longitude
-179.83745°
Altitude
361.373 km
Speed
7.693 km/s
True Right ascension
02h 14m 22s
True Declination
0° 00' 00"
Sunlit
Object was in daylight at epoch
Visualization orbit readout
Latitude
-25.60204°
Longitude
19.635°
Altitude
366.818 km
Speed
7.69 km/s
Apparent Right ascension
18h 43m 44s
Apparent Declination
-72° 38' 02"
Sunlit
Object is in full shadow
Visualization observer readout
Local Sidereal Time
14:15:12
Azimuth
161.169° S
Elevation
-31.565°
Doppler factor
1
Orbital elements
Apogee altitude
360.816 km
Perigee altitude
359.181 km
Semi-major axis
6,738.136 km
Eccentricity
0.00012
Inclination
53.161°
RAAN
33.5948°
Arg. of periapsis
151.8367°
True anomaly
Unknown
Mean anomaly
208.2717°
Eccentric anomaly
Unknown
Mean motion
3.92404 °/min
Orbital period
91.74 mins
BSTAR
0.0000085288
Loading maneuver chart data...
Loading SW <> Apogee altitude chart data...
Loading historical data...
Loading historical data...
Loading historical data...
Loading historical data...
Loading historical data...
Loading historical data...
Loading historical data...

STARLINK-11288 Visibility forecast

Observer location: undefined°, undefined°

Span
Click to sort rows by Start time (UTC) header in descending order
Start Az.
Max El. time (UTC)
Max El. Az.
Max El.
End time (UTC)
End Az.
4 mins2025-07-11 16:34:43.424Z263.915° W2025-07-11 16:35:43.424Z307.65° NW36.14°2025-07-11 16:38:43.424Z39.864° NE
4 mins2025-07-11 22:58:43.424Z307.005° NW2025-07-11 23:00:43.424Z188.194° SSW44.486°2025-07-11 23:02:43.424Z135.005° SSE
|